Total_Precipitation_Accumulation
0.03 0.05 0.08 0.13 0.15 0.17 0.20 0.27 0.29 0.31 0.30 0.36 0.45 0.60 0.84 1.00 1.19 1.25 1.30 1.43 1.65 1.91 2.11 2.43 2.77 3.07 3.55 3.58 3.45 3.52 3.69 3.91 4.02 4.29 4.37 4.63 5.03 5.28 5.41 5.42 5.29 5.31 5.18 5.24
0.06 0.08 0.09 0.13 0.13 0.15 0.22 0.35 0.38 0.35 0.31 0.40 0.57 0.73 0.92 1.09 1.17 1.15 1.29 1.46 1.63 2.05 2.45 2.67 2.81 3.20 3.66 3.83 3.83 3.85 4.02 4.35 4.59 4.86 5.27 5.59 5.95 6.23 6.39 6.40 5.95 5.69 5.54 5.40
0.07 0.09 0.07 0.10 0.11 0.13 0.17 0.25 0.31 0.32 0.32 0.44 0.65 0.94 1.08 1.20 1.35 1.51 1.73 1.92 2.01 2.24 2.63 2.74 2.80 3.15 3.48 3.70 3.83 3.98 4.23 4.67 5.22 5.61 6.04 6.44 6.66 6.71 6.54 6.24 6.11 5.91 5.74 5.57
0.07 0.06 0.06 0.09 0.11 0.14 0.17 0.18 0.26 0.27 0.36 0.51 0.62 1.10 1.43 1.52 1.66 1.90 2.12 2.15 2.23 2.36 2.55 2.67 2.79 3.06 3.38 3.68 3.86 4.19 4.70 5.32 5.86 6.32 6.90 7.41 7.52 7.26 6.89 6.43 6.00 5.73 5.49 5.19
0.08 0.08 0.09 0.09 0.12 0.15 0.17 0.15 0.23 0.27 0.31 0.45 0.61 1.06 1.85 1.97 2.01 2.21 2.40 2.20 2.22 2.15 2.20 2.45 2.59 2.80 3.26 3.55 3.82 4.16 4.74 5.47 6.18 6.95 7.60 8.01 7.89 7.52 7.06 6.37 5.77 5.29 4.91 4.57
0.09 0.08 0.08 0.08 0.10 0.13 0.14 0.17 0.23 0.28 0.35 0.55 0.57 0.94 1.74 2.15 2.31 2.43 2.33 2.10 2.04 1.94 1.95 2.07 2.24 2.55 2.95 3.26 3.53 3.95 4.61 5.40 6.04 6.58 7.04 7.26 7.14 6.93 6.37 5.67 5.04 4.62 4.32 3.98
0.13 0.11 0.10 0.08 0.09 0.14 0.16 0.22 0.48 0.66 0.76 0.75 0.61 0.95 1.69 1.93 2.05 1.97 1.91 1.94 1.81 1.86 1.83 1.85 1.98 2.23 2.59 2.78 3.17 3.60 4.05 4.73 5.15 5.46 5.80 5.95 5.99 5.75 5.40 4.93 4.49 4.05 3.56 3.20
0.27 0.23 0.13 0.08 0.09 0.15 0.17 0.20 0.56 0.86 0.85 0.83 0.81 1.31 1.88 1.83 1.75 1.64 1.59 1.65 1.68 1.71 1.75 1.79 1.94 2.12 2.41 2.57 2.76 2.94 3.22 3.62 3.79 3.80 4.03 4.28 4.29 4.23 4.07 3.78 3.45 3.17 2.83 2.44
0.39 0.28 0.15 0.09 0.08 0.12 0.17 0.19 0.28 0.53 0.60 0.97 1.25 1.72 2.16 1.94 1.84 1.77 1.72 1.57 1.52 1.50 1.58 1.75 1.87 1.89 1.95 2.03 2.12 2.22 2.41 2.56 2.63 2.70 2.77 2.92 2.93 2.90 2.80 2.63 2.38 2.17 2.02 1.79
0.35 0.30 0.16 0.11 0.09 0.12 0.15 0.22 0.34 0.58 1.00 1.26 1.52 2.14 2.71 2.51 2.11 1.82 1.62 1.41 1.33 1.38 1.48 1.64 1.77 1.77 1.77 1.73 1.81 1.89 1.98 2.03 2.06 2.12 2.09 2.05 2.08 2.08 2.06 1.89 1.79 1.70 1.57 1.48
0.31 0.35 0.21 0.15 0.19 0.22 0.24 0.30 0.43 0.63 0.79 1.24 1.75 2.50 2.57 2.76 2.58 2.09 1.74 1.55 1.45 1.39 1.40 1.54 1.55 1.56 1.56 1.54 1.60 1.67 1.67 1.67 1.67 1.66 1.65 1.61 1.56 1.58 1.63 1.62 1.53 1.46 1.37 1.24
0.32 0.45 0.42 0.28 0.22 0.21 0.23 0.31 0.45 0.85 0.92 0.96 1.64 2.68 2.49 2.72 2.78 2.47 2.14 1.94 1.81 1.53 1.45 1.47 1.42 1.39 1.38 1.40 1.44 1.49 1.44 1.41 1.46 1.40 1.34 1.34 1.33 1.33 1.36 1.36 1.24 1.19 1.21 1.12
0.34 0.54 0.89 0.86 0.65 0.37 0.29 0.32 0.39 0.53 0.80 1.06 1.72 2.87 2.80 2.61 2.62 2.55 2.29 2.16 2.19 2.03 1.81 1.67 1.50 1.48 1.44 1.40 1.33 1.23 1.23 1.23 1.27 1.26 1.23 1.19 1.19 1.19 1.20 1.19 1.16 1.11 1.12 1.10
0.28 0.55 1.10 1.47 1.08 0.66 0.47 0.36 0.38 0.51 0.90 1.12 1.54 2.28 2.57 2.55 2.59 2.62 2.64 2.62 2.63 2.34 2.03 1.81 1.59 1.53 1.49 1.40 1.33 1.26 1.24 1.16 1.13 1.15 1.14 1.14 1.12 1.12 1.10 1.13 1.19 1.16 1.07 1.00
0.41 0.80 0.80 0.72 0.64 0.56 0.47 0.46 0.45 0.47 0.61 0.99 1.43 1.87 2.30 2.44 2.56 2.79 2.90 2.79 2.56 2.20 1.97 1.85 1.73 1.64 1.56 1.44 1.37 1.27 1.20 1.11 1.07 1.03 1.03 1.04 1.02 1.00 0.98 1.03 1.07 1.10 1.07 0.99
0.48 0.79 0.79 0.71 0.56 0.61 0.58 0.60 0.62 0.59 0.65 0.96 1.39 2.04 2.35 2.56 2.70 2.73 2.68 2.70 2.66 2.32 2.10 1.97 1.83 1.71 1.67 1.55 1.48 1.39 1.30 1.24 1.14 1.06 1.06 1.04 1.03 0.98 0.96 0.96 0.99 0.96 0.92 0.91
0.51 0.78 1.09 1.04 0.64 0.84 1.16 0.95 0.82 0.84 0.87 1.08 1.47 1.85 2.01 2.18 2.32 2.54 2.68 2.61 2.62 2.39 2.17 2.03 1.97 1.93 1.86 1.79 1.68 1.53 1.38 1.31 1.11 0.99 0.97 0.97 0.96 0.92 0.90 0.85 0.85 0.86 0.93 0.93
0.45 0.80 1.03 1.05 1.18 1.61 1.33 0.85 0.75 0.90 0.98 0.98 1.16 1.30 1.53 1.72 1.94 2.20 2.42 2.59 2.67 2.49 2.34 2.20 2.06 1.98 1.91 1.80 1.67 1.48 1.28 1.13 0.97 0.89 0.89 0.86 0.83 0.83 0.86 0.80 0.79 0.83 0.88 0.87
0.34 0.71 1.06 1.21 1.51 1.60 1.29 0.82 0.74 1.06 1.27 0.97 1.01 1.06 1.09 1.19 1.48 1.97 2.08 2.22 2.37 2.40 2.34 2.21 2.04 1.94 1.83 1.61 1.44 1.32 1.13 1.01 0.93 0.85 0.84 0.76 0.71 0.78 0.80 0.76 0.76 0.82 0.80 0.80
0.39 0.62 1.05 1.28 1.68 1.95 1.61 0.77 0.53 0.89 1.71 1.20 1.08 1.14 1.12 1.30 1.66 1.73 1.61 1.68 1.81 1.95 2.05 2.00 1.84 1.72 1.64 1.44 1.25 1.18 1.06 0.94 0.90 0.83 0.80 0.74 0.73 0.76 0.80 0.81 0.80 0.74 0.75 0.73
0.77 0.91 1.16 1.39 1.74 1.76 0.97 0.59 0.74 1.60 1.95 1.35 1.10 1.18 1.35 1.59 1.60 1.27 1.12 1.29 1.45 1.56 1.70 1.69 1.61 1.58 1.46 1.26 1.18 1.21 1.16 1.01 0.84 0.74 0.73 0.75 0.77 0.73 0.70 0.74 0.76 0.74 0.67 0.69
0.93 1.15 1.31 1.48 1.89 1.89 0.81 0.70 1.22 1.43 1.11 1.00 1.01 1.07 1.09 1.12 1.03 0.93 0.95 1.07 1.16 1.29 1.37 1.46 1.53 1.48 1.35 1.23 1.20 1.21 1.17 0.97 0.83 0.80 0.82 0.78 0.72 0.60 0.57 0.68 0.71 0.69 0.69 0.71
0.88 1.07 1.23 1.46 1.74 1.34 0.76 0.72 0.76 0.77 0.88 0.88 0.93 0.95 0.88 0.89 0.92 0.86 0.92 1.05 1.15 1.19 1.22 1.26 1.33 1.33 1.27 1.18 1.18 1.17 1.06 0.88 0.83 0.90 0.87 0.81 0.69 0.61 0.60 0.65 0.67 0.65 0.66 0.63
0.92 0.75 0.90 1.11 1.13 1.00 0.87 0.76 0.72 0.78 0.81 0.82 0.86 0.85 0.80 0.80 0.79 0.82 0.94 1.06 1.13 1.10 1.09 1.15 1.21 1.21 1.17 1.07 1.04 1.05 0.94 0.89 0.92 0.91 0.83 0.79 0.72 0.64 0.58 0.57 0.54 0.58 0.60 0.59
0.93 0.82 0.97 1.18 1.17 1.09 1.05 0.93 0.85 0.89 0.89 0.84 0.87 0.90 0.81 0.74 0.77 0.81 0.93 0.96 0.99 1.01 1.00 1.03 1.14 1.14 1.00 0.90 0.85 0.82 0.86 0.92 0.96 0.88 0.74 0.68 0.63 0.60 0.59 0.53 0.47 0.48 0.51 0.52
0.80 0.85 1.00 1.20 1.11 1.12 1.08 0.91 0.85 0.99 1.08 0.96 0.91 0.86 0.78 0.74 0.77 0.76 0.79 0.82 0.83 0.86 0.91 0.97 0.98 0.97 0.87 0.77 0.75 0.71 0.75 0.81 0.81 0.75 0.65 0.56 0.50 0.49 0.43 0.44 0.42 0.39 0.38 0.39